Skip Page Navigation
NASA JPL Caltech
NASA Logo - Jet Propulsion Laboratory + View the NASA Portal
+ Near-Earth Object (NEO) Program
Search JPL
JPL Home Earth Solar System Stars & Galaxies Technology
JPL Solar System Dynamics
BODIES ORBITS EPHEMERIDES TOOLS PHYSICAL DATA DISCOVERY FAQ SITE MAP
JPL Small-Body Database Browser
Search: [ help ]  
14026 Esquerdo (1994 ST7)
Classification: Main-belt Asteroid          SPK-ID: 2014026
Ephemeris | Orbit Diagram | Orbital Elements | Physical Parameters | Discovery Circumstances ]

[ hide orbit diagram ]
Orbit Diagram
Note: Make sure you have Java enabled on your browser to see the applet. This applet is provided as a 3D orbit visualization tool. The applet was implemented using 2-body methods, and hence should not be used for determining accurate long-term trajectories (over several years or decades) or planetary encounter circumstances. For accurate long-term ephemerides, please instead use our Horizons system.
Orbit Viewer

Additional Notes: the orbits shown in the applet are color coded. The planets are white lines, and the asteroid/comet is a blue line. The bright white line indicates the portion of the orbit that is above the ecliptic plane, and the darker portion is below the ecliptic plane. Likewise for the asteroid/comet orbit, the light blue indicates the portion above the ecliptic plane, and the dark blue the portion below the ecliptic plane.

Orbit Viewer applet originally written and kindly provided by Osamu Ajiki (AstroArts), and further modified by Ron Baalke (JPL).


Orbital Elements at Epoch 2456400.5 (2013-Apr-18.0) TDB
Reference: MPO250351 (heliocentric ecliptic J2000)
 Element Value Uncertainty (1-sigma)   Units 
e 0.1600003 n/a  
a 2.3608376 n/a AU
q 1.9831029 n/a AU
i 2.63381 n/a deg
node 158.37171 n/a deg
peri 128.22415 n/a deg
M 105.28846 n/a deg
tp 2456012.9962994
(2012-Mar-26.49629940)
n/a JED
period 1324.9441794
3.63
n/a
n/a
d
yr
n 0.27170956 n/a deg/d
Q 2.7385723 n/a AU
  Orbit Determination Parameters
   # obs. used (total)      604  
   first obs. used      1976-??-??  
   last obs. used      2013-01-08  
   # oppositions      14  
   planetary ephem.      DE403  
   condition code      0  
   fit RMS      0.56  
   data source      MPC:mpn  
   producer      MPCLINUX  

Additional Information
 T_jup = 3.532 

Ephemeris | Orbit Diagram | Orbital Elements | Physical Parameters | Discovery Circumstances ]

Physical Parameter Table
Parameter Symbol Value Units Sigma Reference Notes
absolute magnitude H 14.8 mag n/a PDS3 (MPC 39058)  

14026 Esquerdo           Discovered 1994 Sept. 28 by Spacewatch at Kitt Peak.
Gil Esquerdo (b. 1976), a former research assistant at the Planetary Science Institute in Tucson, was appointed in 2002 research assistant for the Near-Earth-Asteroid Physical Study project at the University of Western Ontario.
NOTE: some special characters may not display properly (any characters within {} are an attempt to place the proper accent above a character)
Reference: 20030614/MPCPages.arcLast Updated: 2005-04-26

Alternate Designations
 1994 ST7 = 1976 UF21 = 1976 UV16 = 1997 JM18 = 1997 LR15 
Ephemeris | Orbit Diagram | Orbital Elements | Physical Parameters | Discovery Circumstances ]
ABOUT SSD CREDITS/AWARDS PRIVACY/COPYRIGHT GLOSSARY LINKS
FirstGov 2013-Jun-18 22:57 UT
(server date/time)  
NASA Home Page
Site Manager:   Donald K. Yeomans
Webmaster  Alan B. Chamberlin